STARLINK-34736 (64846 NORAD) Tracking and Keplerian Element Data

This shows tracking and keplerian element data for the satellite.

Feedback or suggestion? Click here.




ElementValue
Catalog64846
NameSTARLINK-34736
Epoch Orbit2344
Epoch Day354.10318587
Epoch Year2025
RAAN207.0798
Inclination97.6002
Eccentricity0.0002197
Argument of Perigee81.6697
Mean Anonmoly278.4779
Mean Motion15.05649875
Decay Rate2.478E-05
L11 64846U 25152E 25354.10318587 .00002478 00000+0 17587-3 0 9996
L22 64846 97.6002 207.0798 0002197 81.6697 278.4779 15.05649875 23440



Live tracking and technical data element details for STARLINK-34736 (NORAD 64846). STARLINK-34736 can be tracked NOW for your location showing map with azimuth and elevation plus other details from your city location.







IsCatalogInMostPopularTable: catalog: 64846, numindb: 4
Update: records affected: 1



GetName: 64846 STARLINK-34736

Hit Count: updated at: Sun, 08 Feb 2026 17:08:21 GMT